Weather Roundup
Issued by NWS

Home | Current Version | Previous Version | Text Only | Print | Product List | Glossary On
Versions: 1 2 3 4 5 6 7 8 9 10 11 12 13 14 15 16 17 18 19 20 21 22 23 24 25 26 27 28 29 30 31 32 33 34 35 36 37 38 39 40 41 42 43 44 45 46 47 48 49 50
651
NZUS93 KARX 291359
HRRWXR

CURRENT HOURLY OBSERVATIONS ACROSS
MUCH OF THE UPPER MISSISSIPPI VALLEY
NATIONAL WEATHER SERVICE LA CROSSE WI
900 AM CDT FRI APR 29 2016


...SOUTHEAST MINNESOTA...


CITY           SKY/WX    TMP DP  RH WIND       PRES   REMARKS
ROCHESTER      CLOUDY    39  38  96 N9        30.15F WCI  33
ROCHESTER/MAYO CLOUDY    38  39 100 N3        30.16F
WINONA         CLOUDY    41  37  87 N7        30.18S
AUSTIN         MOSUNNY   39  36  87 NE8       30.15R WCI  34
ALBERT LEA     NOT AVBL
DODGE CENTER   MOSUNNY   45  43  93 NE10      30.14F
PRESTON        CLOUDY    38  35  88 N7        30.14F WCI  33
OWATONNA       MOSUNNY   41  37  87 NE9       30.15F
FARIBAULT      NOT AVBL
$$

...ELSEWHERE IN MINNESOTA...


CITY           SKY/WX    TMP DP  RH WIND       PRES   REMARKS
MINNEAPOLIS    MOSUNNY   44  39  82 NW7       30.19F
INTNL FALLS    SUNNY     44  31  60 NE8       30.21S
DULUTH         MOSUNNY   44  26  49 NE7       30.18S
RED WING       CLOUDY    39  37  93 W3        30.19S
REDWOOD FALLS  PTSUNNY   41  36  82 NE5       30.18S
MANKATO        CLOUDY    41  36  81 N8        30.17S
WORTHINGTON    CLOUDY    38  35  89 NE13      30.15S WCI  30
FAIRMONT       CLOUDY    37  28  70 NE9       30.15F WCI  31
$$

...SOUTHWEST WISCONSIN...


CITY           SKY/WX    TMP DP  RH WIND       PRES   REMARKS
LA CROSSE      CLOUDY    44  37  76 N9        30.16R
PRAIRIE DU CHI PTSUNNY   42  35  76 N8        30.13R
BOSCOBEL       CLOUDY    45  39  79 NE6       30.14R
LONE ROCK      NOT AVBL
PLATTEVILLE    CLOUDY    40  39  97 N10       30.10F WCI  34
FORT MC COY    CLOUDY    41  38  92 NW3       30.16R
MAUSTON-NEW LI NOT AVBL
VIROQUA        CLOUDY    40  38  93 N9        30.12S WCI  34
WIS DELLS      CLOUDY    41  37  87 NE6       30.11F
$$

...ELSEWHERE IN WISCONSIN...


CITY           SKY/WX    TMP DP  RH WIND       PRES   REMARKS
MILWAUKEE      CLOUDY    41  37  86 NE8       30.10S
MADISON        PTSUNNY   43  38  82 N10       30.09F
GREEN BAY      CLOUDY    45  35  68 NE14      30.13F
EAU CLAIRE     CLOUDY    43  38  82 W3        30.16R
BLACK RVR FLS  CLOUDY    41  40  95 N3        30.15F
MEDFORD        CLOUDY    40  38  92 NE7       30.13S
WAUSAU         CLOUDY    44  36  73 NE7       30.12F
WIS RAPIDS     CLOUDY    44  36  73 NE10      30.14F
MARSHFIELD     CLOUDY    44  37  76 NE8       30.13S
RICE LAKE      SUNNY     39  31  71 NW3       30.18S
$$

...NORTHEAST IOWA...


CITY           SKY/WX    TMP DP  RH WIND       PRES   REMARKS
WATERLOO       PTSUNNY   45  38  76 N15       30.09F
DUBUQUE        CLOUDY    42  39  89 N13       30.08F
DECORAH        CLOUDY    39  37  93 N9        30.13R WCI  33
MASON CITY     CLOUDY    39  37  92 N15       30.14F WCI  31
CHARLES CITY   CLOUDY    39  39 100 N14       30.14S WCI  31
OELWEIN        CLOUDY    43  39  87 N13       30.11F
$$

...ELSEWHERE IN IOWA...


CITY           SKY/WX    TMP DP  RH WIND       PRES   REMARKS
DES MOINES     CLOUDY    48  41  76 N8        30.08R
IOWA CITY      CLOUDY    45  40  82 N16G23    30.08F
FORT DODGE     CLOUDY    43  37  81 NE15      30.09F
MARSHALLTOWN   CLOUDY    45  40  82 NE20      30.06F
CEDAR RAPIDS   CLOUDY    44  42  93 N13       30.06F
$$

...NORTHERN ILLINOIS...


CITY           SKY/WX    TMP DP  RH WIND       PRES   REMARKS
CHICAGO-OHARE  CLOUDY    43  39  86 N12       30.06F
CHICAGO-MIDWAY CLOUDY    45  39  79 N13       30.05F
MOLINE         CLOUDY    46  40  79 N9        30.07S
ROCKFORD       CLOUDY    44  38  79 N14       30.09F
PEORIA         CLOUDY    49  43  80 NE8       30.07R
$$

NOTE: "FAIR" INDICATES FEW OR NO CLOUDS BELOW 12,000 FEET WITH NO
SIGNIFICANT WEATHER AND/OR OBSTRUCTIONS TO VISIBILITY. WIND
SPEEDS ARE IN MILES-PER-HOUR.




USA.gov is the U.S. government's official web portal to all federal, state and local government web resources and services.